Location: Downe
(51.3167°N, 0.0500°E)
Time: 02:22:26
(UTC+00:00)

Okean 3 Rocket - Pass Details

Date: 17 November 2019
Orbit: 614 x 646 km, 82.5° (Epoch: 14 December)

Event Time Altitude Azimuth Distance (km) Brightness Sun altitude
Rises 05:04:53 0° 189° (S) 2,940 7.0 -20.8°
Reaches altitude 10° 05:07:07 10° 190° (S) 2,032 6.1 -20.5°
Maximum altitude 05:11:38 87° 279° (W) 646 3.5 -19.7°
Drops below altitude 10° 05:16:10 10° 10° (N) 2,030 6.2 -19.0°
Sets 05:18:24 0° 11° (N) 2,938 7.1 -18.7°
